{"data":{"norad_id":62325,"epoch":"2026-05-25T04:12:08.164800Z","epoch_age_seconds":59590,"freshness":"FRESH","line1":"1 62325U 24240C   26145.17509450  .00000014  00000+0 -14826-5 0  9990","line2":"2 62325  86.4983 350.9109 0001479  84.5632 275.5671 13.24407590 69591","mean_motion":13.2440759,"eccentricity":0.0001479,"inclination_deg":86.4983,"raan_deg":350.9109,"arg_perigee_deg":84.5632,"mean_anomaly_deg":275.5671,"bstar":-1.4826e-6,"rev_number":6959,"period_min":108.72785771335,"perigee_km":1166.8152763994,"apogee_km":1169.0474034144,"semimajor_km":7546.0683399069,"source":"CELESTRAK","updated_at":"2026-05-25T13:38:02.936088Z"}}